Terminal Aerodrome Forecast
Issued by NWS

Home | Current Version | Previous Version | Graphics & Text | Print | Product List | Glossary On
Versions: 1 2 3 4 5 6 7 8 9 10 11 12 13 14 15 16 17 18 19 20 21 22 23 24 25 26 27 28 29 30 31 32 33 34 35 36 37 38 39 40 41 42 43 44 45 46 47 48 49 50
476
FTUS43 KLOT 251120
TAFGYY
TAF
KGYY 251120Z 2512/2612 35015G23KT P6SM BKN035
     FM251400 36014G21KT P6SM FEW250
     FM260000 01011KT P6SM SKC
     FM260400 36006KT P6SM SKC=

USA.gov is the U.S. government's official web portal to all federal, state and local government web resources and services.